Bangor, ME

2:57 AM EDT on September 30, 2016 (GMT -0400)
Bangor International

Weather History for KBGR - July, 2014

Change the Weather History Date:

Friday, July 4, 2014

  Actual Average Record
Temperature  
Mean Temperature 71 °F 68 °F  
Max Temperature 76 °F 78 °F 99 °F (1949)
Min Temperature 65 °F 57 °F 43 °F (1929)
Degree Days  
Heating Degree Days 0 1  
Month to date heating degree days 0 4  
Since 1 June heating degree days 71 111  
Since 1 July heating degree days 0 4  
Cooling Degree Days 6 4  
Month to date cooling degree days 42 14  
Year to date cooling degree days 88 72  
Since 1 June cooling degree days 88 66  
Growing Degree Days 20 (Base 50)    
Moisture  
Dew Point 66 °F    
Average Humidity 87    
Maximum Humidity 100    
Minimum Humidity 73    
Precipitation  
Precipitation 1.33 in 0.10 in 1.33 in (2014)
Month to date precipitation 1.50 0.42  
Year to date precipitation 19.50 20.23  
Snow  
Snow 0.00 in 0.00 in 0.00 in (2002)
Month to date snowfall 0.0 0.0  
Since 1 June snowfall 0.0 0.0  
Since 1 July snowfall 0.0 0.0  
Snow Depth 0.00 in    
Sea Level Pressure  
Sea Level Pressure 29.93 in    
Wind  
Wind Speed 7 mph (SW)    
Max Wind Speed 18 mph    
Max Gust Speed 26 mph    
Visibility 5 miles    
Events Fog , Rain    
T = Trace of Precipitation, MM = Missing Value Source: NWS Daily Summary

Daily Weather History Graph

Daily Weather History Graph

Search for Another Location

Airport or City:

Trip Planner

Search our weather history database for the weather conditions in past years. The results will help you decide how hot, cold, wet, or windy it might be!

Date:

Astronomy

Jul. 04, 2014 Rise Set
Actual Time 4:55 AM EDT 8:24 PM EDT
Civil Twilight 4:18 AM EDT 9:00 PM EDT
Nautical Twilight 3:29 AM EDT 9:49 PM EDT
Astronomical Twilight 2:27 AM EDT 10:51 PM EDT
Moon 12:06 PM EDT (7/4) 11:54 PM EDT (7/4)
Length of Visible Light 16h 42m
Length of Day
15h 29m
Waxing Crescent, 42% of the Moon is Illuminated
Jul 4
Waxing Crescent
Jul 5
First Quarter
Jul 12
Full
Jul 18
Last Quarter
Jul 26
New

Hourly Weather History & Observations

Time (EDT) Temp. Dew Point Humidity Pressure Visibility Wind Dir Wind Speed Gust Speed Precip Events Conditions
12:53 AM 66.9 °F 66.0 °F 97% 29.91 in 1.0 mi South 6.9 mph - 0.00 in   Overcast
1:53 AM 66.9 °F 64.9 °F 93% 29.93 in 1.0 mi South 8.1 mph - N/A   Overcast
2:00 AM 66.9 °F 64.9 °F 93% 29.93 in 6.0 mi South 8.1 mph - N/A   Overcast
2:53 AM 66.0 °F 64.9 °F 96% 29.87 in 6.0 mi SSE 4.6 mph - 0.01 in   Overcast
3:53 AM 66.0 °F 64.0 °F 93% 29.88 in 6.0 mi SSW 4.6 mph - 0.01 in   Overcast
4:32 AM 64.9 °F 64.0 °F 97% 29.91 in 2.0 mi SSW 8.1 mph - N/A   Overcast
4:38 AM 64.9 °F 64.0 °F 97% 29.91 in 1.0 mi SSW 6.9 mph - N/A   Overcast
4:49 AM 64.4 °F 64.4 °F 100% 29.92 in 0.8 mi SW 5.8 mph - N/A   Overcast
4:50 AM 64.9 °F 64.0 °F 97% 29.91 in 0.5 mi SW 5.8 mph - N/A Fog Fog
5:02 AM 64.9 °F 64.0 °F 97% 29.92 in 0.2 mi SSW 6.9 mph - N/A Fog Fog
5:08 AM 64.9 °F 64.0 °F 97% 29.93 in 0.2 mi SW 5.8 mph - N/A Fog Fog
5:46 AM 66.0 °F 64.9 °F 96% 29.94 in 0.2 mi South 5.8 mph - N/A Fog Fog
5:53 AM 66.0 °F 64.9 °F 96% 29.94 in 0.2 mi South 6.9 mph - N/A Fog Fog
6:03 AM 66.0 °F 64.9 °F 96% 29.95 in 0.5 mi SSW 8.1 mph - N/A Fog Fog
6:47 AM 66.2 °F 64.4 °F 94% 29.97 in 1.0 mi SW 4.6 mph - N/A   Overcast
6:53 AM 66.9 °F 64.9 °F 93% 29.97 in 1.2 mi SW 3.5 mph - N/A   Overcast
7:36 AM 68.0 °F 66.0 °F 93% 29.99 in 3.0 mi Calm Calm - N/A   Overcast
7:51 AM 69.8 °F 66.2 °F 88% 29.98 in 5.0 mi SSW 6.9 mph - N/A   Overcast
7:53 AM 69.1 °F 66.0 °F 90% 29.98 in 5.0 mi SSW 6.9 mph - N/A   Overcast
8:15 AM 73.0 °F 66.9 °F 81% 29.98 in 10.0 mi SSW 9.2 mph - N/A   Scattered Clouds
8:53 AM 73.0 °F 66.0 °F 79% 29.98 in 10.0 mi SW 9.2 mph - N/A   Mostly Cloudy
9:53 AM 75.0 °F 66.0 °F 73% 29.96 in 10.0 mi SSW 9.2 mph - N/A   Mostly Cloudy
10:53 AM 73.9 °F 64.9 °F 73% 29.98 in 10.0 mi SSW 8.1 mph - N/A   Mostly Cloudy
11:53 AM 75.0 °F 66.0 °F 73% 29.98 in 10.0 mi WSW 6.9 mph - 0.00 in   Overcast
12:40 PM 75.0 °F 66.0 °F 73% 29.97 in 10.0 mi South 4.6 mph - N/A   Overcast
12:53 PM 75.0 °F 66.0 °F 73% 29.96 in 10.0 mi SSE 6.9 mph - N/A   Overcast
1:53 PM 73.9 °F 68.0 °F 82% 29.96 in 10.0 mi South 6.9 mph - 0.00 in Rain Light Rain
2:53 PM 72.0 °F 68.0 °F 87% 29.94 in 6.0 mi South 6.9 mph - 0.02 in Rain Light Rain
3:53 PM 73.0 °F 68.0 °F 84% 29.94 in 10.0 mi SSW 4.6 mph - 0.00 in   Overcast
4:53 PM 73.0 °F 68.0 °F 84% 29.94 in 10.0 mi SW 5.8 mph - 0.00 in Rain Light Rain
5:53 PM 72.0 °F 68.0 °F 87% 29.94 in 10.0 mi Calm Calm - 0.01 in Rain Light Rain
6:34 PM 71.1 °F 68.0 °F 90% 29.95 in 7.0 mi West 3.5 mph - 0.02 in Rain Light Rain
6:53 PM 71.1 °F 68.0 °F 90% 29.94 in 6.0 mi West 3.5 mph - 0.03 in Rain Light Rain
7:53 PM 70.0 °F 66.9 °F 90% 29.92 in 4.0 mi Calm Calm - 0.06 in Rain Light Rain
8:53 PM 69.1 °F 66.9 °F 93% 29.91 in 2.5 mi West 3.5 mph - 0.12 in Rain Light Rain
9:16 PM 68.0 °F 64.9 °F 90% 29.91 in 3.0 mi NNW 9.2 mph - N/A Rain Light Rain
9:37 PM 66.9 °F 64.9 °F 93% 29.91 in 2.5 mi North 10.4 mph - N/A Rain Light Rain
9:53 PM 66.9 °F 64.9 °F 93% 29.90 in 4.0 mi North 10.4 mph - N/A Rain Light Rain
10:19 PM 66.0 °F 64.9 °F 96% 29.89 in 2.5 mi NNE 12.7 mph - 0.25 in Rain Rain
10:53 PM 66.0 °F 64.0 °F 93% 29.87 in 3.0 mi North 11.5 mph - 0.37 in Rain Light Rain
11:14 PM 66.0 °F 64.0 °F 93% 29.85 in 2.5 mi North 16.1 mph - 0.13 in Rain Light Rain
11:53 PM 64.9 °F 63.0 °F 93% 29.81 in 6.0 mi North 12.7 mph - 0.18 in Rain Light Rain